timestamp,wind_dir_avg,wind_spd_avg,wind_spd_max_dir,wind_spd_gust,battery_voltage,lat,long
2023-04-09 00:04:00+00:00,307.0,6.93,307.0,8.27,12.49,47.59359,-54.27349
2023-04-09 00:14:00+00:00,332.0,9.7,327.0,11.66,12.33,47.59359,-54.27349
2023-04-09 00:24:00+00:00,329.0,8.27,335.0,9.07,12.33,47.59359,-54.27349
2023-04-09 00:34:00+00:00,340.0,8.77,336.0,10.88,12.33,47.59359,-54.27349
2023-04-09 00:44:00+00:00,332.0,8.11,334.0,9.32,12.33,47.59359,-54.27349
2023-04-09 00:54:00+00:00,325.0,10.5,323.0,12.02,12.33,47.59359,-54.27349
2023-04-09 01:04:00+00:00,329.0,9.51,328.0,10.87,12.33,47.59359,-54.27349
2023-04-09 01:14:00+00:00,324.0,9.4,326.0,10.42,12.25,47.59359,-54.27349
2023-04-09 01:24:00+00:00,326.0,10.26,331.0,12.04,12.25,47.59359,-54.27349
2023-04-09 01:34:00+00:00,325.0,7.52,330.0,9.04,12.25,47.59359,-54.27349
2023-04-09 01:44:00+00:00,324.0,7.51,326.0,8.86,12.25,47.59359,-54.27349
2023-04-09 01:54:00+00:00,317.0,7.26,324.0,8.67,12.25,47.59359,-54.27349
2023-04-09 02:04:00+00:00,324.0,8.39,331.0,9.81,12.25,47.59359,-54.27349
2023-04-09 02:14:00+00:00,313.0,6.68,316.0,7.98,12.25,47.59359,-54.27349
2023-04-09 02:24:00+00:00,314.0,6.5,319.0,7.53,12.25,47.59359,-54.27349
2023-04-09 02:34:00+00:00,324.0,5.61,322.0,6.6,12.25,47.59359,-54.27349
2023-04-09 02:44:00+00:00,314.0,6.22,320.0,7.65,12.25,47.59359,-54.27349
2023-04-09 02:54:00+00:00,307.0,8.08,307.0,9.78,12.25,47.59359,-54.27349
2023-04-09 03:04:00+00:00,318.0,8.68,324.0,10.22,12.25,47.59359,-54.27349
2023-04-09 03:14:00+00:00,305.0,8.34,316.0,9.99,12.17,47.59359,-54.27349
2023-04-09 03:24:00+00:00,320.0,7.44,311.0,8.78,12.17,47.59359,-54.27349
2023-04-09 03:34:00+00:00,308.0,7.66,306.0,9.19,12.17,47.59359,-54.27349
2023-04-09 03:44:00+00:00,310.0,6.87,310.0,8.55,12.17,47.59359,-54.27349
2023-04-09 03:54:00+00:00,308.0,7.71,307.0,9.28,12.17,47.59359,-54.27349
2023-04-09 04:04:00+00:00,304.0,7.23,300.0,8.83,12.17,47.59359,-54.27349
2023-04-09 04:14:01+00:00,317.0,6.19,311.0,7.32,12.17,47.59359,-54.27349
2023-04-09 04:24:01+00:00,318.0,5.54,308.0,7.84,12.17,47.59359,-54.27349
2023-04-09 04:34:01+00:00,317.0,6.15,315.0,6.92,12.17,47.59359,-54.27349
2023-04-09 04:44:01+00:00,316.0,5.02,296.0,7.53,12.17,47.59359,-54.27349
2023-04-09 04:54:01+00:00,298.0,7.65,299.0,8.94,12.17,47.59359,-54.27349
2023-04-09 05:04:01+00:00,312.0,5.46,304.0,7.58,12.17,47.59359,-54.27349
2023-04-09 05:14:00+00:00,296.0,7.49,303.0,8.58,12.09,47.59359,-54.27349
2023-04-09 05:24:00+00:00,302.0,4.6,289.0,8.22,12.09,47.59359,-54.27349
2023-04-09 05:34:00+00:00,290.0,5.32,280.0,7.91,12.09,47.59359,-54.27349
2023-04-09 05:44:00+00:00,288.0,4.68,286.0,7.77,12.09,47.59359,-54.27349
2023-04-09 05:54:00+00:00,285.0,7.12,276.0,11.81,12.09,47.59359,-54.27349
2023-04-09 06:04:00+00:00,274.0,7.27,276.0,9.82,12.09,47.59359,-54.27349
2023-04-09 06:14:00+00:00,280.0,8.02,281.0,12.72,12.09,47.59359,-54.27349
2023-04-09 06:24:00+00:00,278.0,7.35,277.0,8.41,12.09,47.59359,-54.27349
2023-04-09 06:34:00+00:00,285.0,7.73,280.0,11.04,12.09,47.59359,-54.27349
2023-04-09 06:44:00+00:00,275.0,8.71,269.0,13.21,12.09,47.59359,-54.27349
2023-04-09 06:54:00+00:00,269.0,6.45,269.0,7.85,12.09,47.59359,-54.27349
2023-04-09 07:04:00+00:00,271.0,7.18,273.0,11.26,12.09,47.59359,-54.27349
2023-04-09 07:14:00+00:00,273.0,8.23,275.0,11.15,12.09,47.59359,-54.27349
2023-04-09 07:24:00+00:00,285.0,9.22,272.0,13.37,12.09,47.59359,-54.27349
2023-04-09 07:34:00+00:00,277.0,8.83,270.0,12.98,12.09,47.59359,-54.27349
2023-04-09 07:44:00+00:00,278.0,8.13,275.0,12.57,12.09,47.59359,-54.27349
2023-04-09 07:54:00+00:00,289.0,6.5,293.0,8.54,12.09,47.59359,-54.27349
2023-04-09 08:04:00+00:00,281.0,7.76,286.0,8.45,12.09,47.59359,-54.27349
2023-04-09 08:14:00+00:00,271.0,8.15,270.0,10.23,12.01,47.59359,-54.27349
2023-04-09 08:24:00+00:00,282.0,7.73,278.0,8.42,12.01,47.59359,-54.27349
2023-04-09 08:34:00+00:00,284.0,7.89,283.0,9.82,12.01,47.59359,-54.27349
2023-04-09 08:44:00+00:00,279.0,7.7,276.0,8.66,12.01,47.59359,-54.27349
2023-04-09 08:54:00+00:00,279.0,7.7,273.0,9.37,12.01,47.59359,-54.27349
2023-04-09 09:04:00+00:00,276.0,11.65,276.0,14.02,12.01,47.59359,-54.27349
2023-04-09 09:14:00+00:00,272.0,9.79,272.0,14.02,12.01,47.59359,-54.27349
2023-04-09 09:24:00+00:00,280.0,7.86,279.0,9.84,12.01,47.59359,-54.27349
2023-04-09 09:34:00+00:00,278.0,8.44,275.0,13.0,12.01,47.59359,-54.27349
2023-04-09 09:44:00+00:00,279.0,9.12,275.0,13.46,12.01,47.59359,-54.27349
2023-04-09 09:54:00+00:00,271.0,7.17,264.0,8.44,12.01,47.59359,-54.27349
2023-04-09 10:04:00+00:00,279.0,8.73,275.0,12.86,12.01,47.59359,-54.27349
2023-04-09 10:14:00+00:00,279.0,8.48,271.0,13.11,13.05,47.59359,-54.27349
2023-04-09 10:24:00+00:00,280.0,10.07,279.0,13.15,13.05,47.59359,-54.27349
2023-04-09 10:34:00+00:00,287.0,7.66,280.0,12.65,13.05,47.59359,-54.27349
2023-04-09 10:44:00+00:00,289.0,7.54,290.0,8.35,13.05,47.59359,-54.27349
2023-04-09 10:54:00+00:00,293.0,8.78,284.0,14.29,13.05,47.59359,-54.27349
2023-04-09 11:04:00+00:00,292.0,6.54,274.0,8.44,13.05,47.59359,-54.27349
2023-04-09 11:14:01+00:00,288.0,7.05,290.0,8.28,13.84,47.59359,-54.27349
2023-04-09 11:24:01+00:00,301.0,7.47,301.0,9.06,13.84,47.59359,-54.27349
2023-04-09 11:34:01+00:00,297.0,5.71,297.0,7.63,13.84,47.59359,-54.27349
2023-04-09 11:44:01+00:00,299.0,6.89,300.0,7.99,13.84,47.59359,-54.27349
2023-04-09 11:54:01+00:00,283.0,6.72,284.0,8.21,13.84,47.59359,-54.27349
2023-04-09 12:04:01+00:00,292.0,6.99,297.0,8.28,13.84,47.59359,-54.27349
2023-04-09 12:14:01+00:00,284.0,6.78,274.0,8.12,13.76,47.59359,-54.27349
2023-04-09 12:24:01+00:00,276.0,7.81,283.0,9.27,13.76,47.59359,-54.27349
2023-04-09 12:34:01+00:00,287.0,7.96,292.0,13.75,13.76,47.59359,-54.27349
2023-04-09 12:44:01+00:00,289.0,7.5,288.0,13.36,13.76,47.59359,-54.27349
2023-04-09 12:54:01+00:00,284.0,8.23,279.0,13.15,13.76,47.59359,-54.27349
2023-04-09 13:04:01+00:00,282.0,12.5,281.0,14.94,13.76,47.59359,-54.27349
2023-04-09 13:14:00+00:00,283.0,6.74,288.0,8.35,14.16,47.59359,-54.27349
2023-04-09 13:24:00+00:00,282.0,12.27,289.0,14.8,14.16,47.59359,-54.27349
2023-04-09 13:34:00+00:00,275.0,8.21,276.0,11.78,14.16,47.59359,-54.27349
2023-04-09 13:44:00+00:00,277.0,10.76,280.0,15.05,14.16,47.59359,-54.27349
2023-04-09 13:54:00+00:00,290.0,7.72,282.0,10.83,14.16,47.59359,-54.27349
2023-04-09 14:04:00+00:00,283.0,5.64,285.0,7.62,14.16,47.59359,-54.27349
2023-04-09 14:14:00+00:00,281.0,4.48,279.0,6.63,14.48,47.59359,-54.27349
2023-04-09 14:24:00+00:00,264.0,6.32,271.0,7.68,14.48,47.59359,-54.27349
2023-04-09 14:34:00+00:00,272.0,11.36,272.0,14.6,14.48,47.59359,-54.27349
2023-04-09 14:44:00+00:00,276.0,10.04,279.0,14.3,14.48,47.59359,-54.27349
2023-04-09 14:54:00+00:00,281.0,6.75,279.0,12.72,14.48,47.59359,-54.27349
2023-04-09 15:04:00+00:00,269.0,6.44,271.0,7.88,14.48,47.59359,-54.27349
2023-04-09 15:14:01+00:00,276.0,8.25,268.0,10.31,13.6,47.59359,-54.27349
2023-04-09 15:24:01+00:00,284.0,12.93,284.0,15.05,13.6,47.59359,-54.27349
2023-04-09 15:34:01+00:00,286.0,6.18,279.0,8.6,13.6,47.59359,-54.27349
2023-04-09 15:44:01+00:00,285.0,8.33,286.0,10.33,13.6,47.59359,-54.27349
2023-04-09 15:54:01+00:00,260.0,10.6,259.0,12.03,13.6,47.59359,-54.27349
2023-04-09 16:04:01+00:00,271.0,8.65,279.0,10.87,13.6,47.59359,-54.27349
2023-04-09 16:14:00+00:00,258.0,8.73,263.0,10.47,13.68,47.59359,-54.27349
2023-04-09 16:24:00+00:00,263.0,10.66,270.0,11.85,13.68,47.59359,-54.27349
2023-04-09 16:34:00+00:00,258.0,11.36,257.0,12.58,13.68,47.59359,-54.27349
2023-04-09 16:44:00+00:00,284.0,11.36,285.0,12.58,13.68,47.59359,-54.27349
2023-04-09 16:54:00+00:00,294.0,8.27,289.0,9.71,13.68,47.59359,-54.27349
2023-04-09 17:04:00+00:00,290.0,10.16,298.0,11.72,13.68,47.59359,-54.27349
2023-04-09 17:14:00+00:00,273.0,11.0,270.0,12.77,13.76,47.59359,-54.27349
2023-04-09 17:24:00+00:00,280.0,6.56,286.0,8.74,13.76,47.59359,-54.27349
2023-04-09 17:34:00+00:00,280.0,11.08,285.0,13.39,13.76,47.59359,-54.27349
2023-04-09 17:44:00+00:00,279.0,9.74,278.0,11.49,13.76,47.59359,-54.27349
2023-04-09 17:54:00+00:00,281.0,10.15,281.0,11.16,13.76,47.59359,-54.27349
2023-04-09 18:04:00+00:00,282.0,11.69,271.0,14.93,13.76,47.59359,-54.27349
2023-04-09 18:14:00+00:00,293.0,9.42,288.0,10.67,13.68,47.59359,-54.27349
2023-04-09 18:24:00+00:00,277.0,10.95,276.0,12.36,13.68,47.59359,-54.27349
2023-04-09 18:34:00+00:00,271.0,10.12,272.0,11.01,13.68,47.59359,-54.27349
2023-04-09 18:44:00+00:00,286.0,9.9,290.0,12.53,13.68,47.59359,-54.27349
2023-04-09 18:54:00+00:00,287.0,7.84,282.0,8.48,13.68,47.59359,-54.27349
2023-04-09 19:04:00+00:00,274.0,10.96,278.0,11.81,13.68,47.59359,-54.27349
2023-04-09 19:14:01+00:00,291.0,7.97,292.0,10.42,13.68,47.59359,-54.27349
2023-04-09 19:24:01+00:00,292.0,10.06,290.0,11.65,13.68,47.59359,-54.27349
2023-04-09 19:34:01+00:00,302.0,8.95,304.0,11.19,13.68,47.59359,-54.27349
2023-04-09 19:44:01+00:00,299.0,9.14,297.0,10.6,13.68,47.59359,-54.27349
2023-04-09 19:54:01+00:00,280.0,9.77,277.0,11.22,13.68,47.59359,-54.27349
2023-04-09 20:04:01+00:00,287.0,8.16,282.0,9.49,13.68,47.59359,-54.27349
2023-04-09 20:14:00+00:00,286.0,9.0,291.0,10.51,13.68,47.59359,-54.27349
2023-04-09 20:24:00+00:00,276.0,10.91,279.0,13.16,13.68,47.59359,-54.27349
2023-04-09 20:34:00+00:00,290.0,9.18,293.0,10.83,13.68,47.59359,-54.27349
2023-04-09 20:44:00+00:00,273.0,12.01,276.0,13.43,13.68,47.59359,-54.27349
2023-04-09 20:54:00+00:00,279.0,10.3,276.0,11.15,13.68,47.59359,-54.27349
2023-04-09 21:04:00+00:00,277.0,9.87,280.0,11.47,13.68,47.59359,-54.27349
2023-04-09 21:14:00+00:00,279.0,8.6,286.0,9.93,13.6,47.59359,-54.27349
2023-04-09 21:24:00+00:00,290.0,9.31,294.0,11.29,13.6,47.59359,-54.27349
2023-04-09 21:34:00+00:00,297.0,9.48,300.0,10.97,13.6,47.59359,-54.27349
2023-04-09 21:44:00+00:00,293.0,8.88,289.0,10.65,13.6,47.59359,-54.27349
2023-04-09 21:54:00+00:00,301.0,9.31,301.0,11.0,13.6,47.59359,-54.27349
2023-04-09 22:04:00+00:00,302.0,5.31,302.0,6.53,13.6,47.59359,-54.27349
2023-04-09 22:14:00+00:00,287.0,8.34,288.0,9.84,13.13,47.59359,-54.27349
2023-04-09 22:24:00+00:00,283.0,7.36,280.0,9.52,13.13,47.59359,-54.27349
2023-04-09 22:34:00+00:00,286.0,7.57,284.0,9.77,13.13,47.59359,-54.27349
2023-04-09 22:44:00+00:00,279.0,6.87,297.0,9.12,13.13,47.59359,-54.27349
2023-04-09 22:54:00+00:00,272.0,7.3,275.0,9.19,13.13,47.59359,-54.27349
2023-04-09 23:04:00+00:00,287.0,6.26,290.0,7.01,13.13,47.59359,-54.27349
2023-04-09 23:14:00+00:00,298.0,8.17,287.0,9.95,12.49,47.59359,-54.27349
2023-04-09 23:24:00+00:00,292.0,7.74,292.0,8.64,12.49,47.59359,-54.27349
2023-04-09 23:34:00+00:00,295.0,8.44,289.0,9.84,12.49,47.59359,-54.27349
2023-04-09 23:44:00+00:00,303.0,8.84,300.0,10.8,12.49,47.59359,-54.27349
2023-04-09 23:54:00+00:00,299.0,8.67,307.0,10.14,12.49,47.59359,-54.27349
